Location: G�ndlingen
(48.0142°N, 7.6396°E)
Time: 16:51:43
(UTC+00:00)

Lacrosse 5 rocket - Pass Details

Date: 05 July 2020
Orbit: 465 x 632 km, 57.0° (Epoch: 12 August)

Event Time Altitude Azimuth Distance (km) Brightness Sun altitude
Rises 21:14:10 0° 287° (WNW) 2,793 5.8 -12.7°
Reaches altitude 10° 21:16:50 10° 302° (WNW) 1,862 5.1 -12.9°
Maximum altitude 21:20:14 23° 356° (N) 1,188 3.8 -13.2°
Drops below altitude 10° 21:23:30 10° 50° (NE) 1,777 4.0 -13.5°
Sets 21:26:00 0° 65° (ENE) 2,633 4.7 -13.7°
